Location: La Tine
(46.4708°N, 7.0525°E)
Time: 01:11:46
(UTC+00:00)

Spot 2 Rocket - Pass Details

Date: 18 September 2020
Orbit: 758 x 771 km, 98.6° (Epoch: 29 October)

Event Time Altitude Azimuth Distance (km) Brightness Sun altitude
Exits shadow 19:48:06 32° 57° (ENE) 1,288 4.4 -22.5°
Drops below altitude 10° 19:52:12 10° 3° (N) 2,299 6.3 -23.1°
Sets 19:54:42 0° 354° (N) 3,229 7.2 -23.5°
